STARLINK-4768, 53806

Orbit data source: Space-Track

STARLINK-4768, 53806 is a payload satellite owned by SpaceX/Seattle (US) in LEO that was launched on Sun, 11 Sep 2022 UTC via an FALCON 9 launch vehicle from the Air Force Eastern Test Range (AFETR). Payload-class satellites include a variety of spacecraft equipped with specific instruments for various scientific and technological missions. These include communications satellites like Starlink; space stations such as the ISS; scientific satellites like the Hubble; Earth observation satellites from companies like Planet Labs, Umbra, and HawkEye 360; GPS; miniature CubeSats for education and research; and military/defense satellites.

Loading next visibility...
Identifier
53806, 2022-111AK
Orbit
LEO
Last TLE update
12 hours ago
Origin
Manufacturer
SpaceX/Seattle
Mission
Operational Commercial Communications
Bus & Motor
STARLINK, Unknown motor
Mass
305 kg wet, ~290 kg dry
Launch date (UTC)
2022-09-11 (3 years ago)
Launch vehicle
FALCON 9
Launch site
Air Force Eastern Test Range (AFETR)
Object type
Payload
Rocket body
Debris
Shape & HBR
Box + 1 Pan, 8.86 m
Radar Cross Section
13.562 m², Large (>1 m²)

Expand to show TLE details & history

TLE from 12 hours ago
0 STARLINK-4768
1 53806U 22111AK  25129.28174047 -.00000024  00000-0  16578-4 0  9999
2 53806  53.2165 175.5064 0001205  89.6361 270.4770 15.08838182148076
Epoch: 2025-05-09T06:45Z
Definitive object data (Epoch: 2025-05-09T06:45:42.376Z)
Latitude
0.00003°
Longitude
-153.26027°
Altitude
540.639 km
Speed
7.593 km/s
True Right ascension
11h 42m 01s
True Declination
0° 00' 00"
Sunlit
Object was in full shadow at TLE epoch
Visualization TLE readout
Latitude
-50.84943°
Longitude
138.45707°
Altitude
558.16 km
Speed
7.582 km/s
Apparent Right ascension
11h 37m 22s
Apparent Declination
-64° 36' 58"
Sunlit
Object is in daylight
Visualization observer readout
Local Sidereal Time
03:19:48
Azimuth
146.653° SSE
Elevation
-49.946°
Doppler factor
1
Orbital elements
Apogee altitude
540.828 km
Perigee altitude
539.16 km
Semi-major axis
6,918.131 km
Eccentricity
0.0001205
Inclination
53.2165°
RAAN
175.5064°
Arg. of periapsis
89.6361°
True anomaly
270.46319°
Mean anomaly
270.477°
Eccentric anomaly
270.4701°
Mean motion
3.7719 °/min
BSTAR
0.000016578
Orbital period
95.44 mins
Loading maneuver chart data...
Loading SW <> Apogee altitude chart data...
Loading historical data...
Loading historical data...
Loading historical data...
Loading historical data...
Loading historical data...
Loading historical data...
Loading historical data...

STARLINK-4768 Visibility forecast

Observer location: undefined°, undefined°

Span
Click to sort rows by Start time (UTC) header in descending order
Start Az.
Max El. time (UTC)
Max El. Az.
Max El.
End time (UTC)
End Az.
6 mins2025-05-10 05:10:53.162Z203.148° SW2025-05-10 05:13:53.162Z136.882° SSE35.597°2025-05-10 05:16:53.162Z65.639° ENE
6 mins2025-05-10 06:50:53.162Z278.754° WNW2025-05-10 06:53:53.162Z345.516° N25.678°2025-05-10 06:56:53.162Z33.137° NE
6 mins2025-05-10 11:51:53.162Z325.759° NNW2025-05-10 11:54:53.162Z43.066° NE35.495°2025-05-10 11:57:53.162Z104.992° ESE
5 mins2025-05-10 13:31:53.162Z271.06° WNW2025-05-10 13:33:53.162Z229.575° WSW22.739°2025-05-10 13:36:53.162Z177.563° S
|